MAH2229 HEGN-LHBP

Flight info

Callsign MAH2229
Flight time N/A
Altitude 38000
Route BOTIX1B BOTIX V608 NABED T55 KUNKI P751 MMA L613 TANSA/N0466F360 DCT RIGRO DCT ATFIR N133 USALI DCT LOMOS DCT PADGU DCT DEGET DCT KEZAL
Aircraft B738/M-SDE2E3FGHIRWXY/LB1

Departure

Time 2026-04-29 18:26
Airport Hurghada International Airport (HEGN)

Arrival

Time N/A
Airport Budapest Liszt Ferenc International Airport (LHBP)
Time Latitude Longitude Altitude Speed Heading
2026-04-29 17:22 27.18737 33.80446 57 ft 0 kts 75°
2026-04-29 18:06 27.18733 33.80430 52 ft 2 kts 75°
2026-04-29 18:07 27.18729 33.80412 51 ft 2 kts 75°
2026-04-29 18:07 27.18725 33.80394 51 ft 2 kts 86°
2026-04-29 18:07 27.18728 33.80376 50 ft 1 kts 151°
2026-04-29 18:07 27.18734 33.80373 51 ft 0 kts 165°
2026-04-29 18:12 27.18732 33.80374 50 ft 1 kts 165°
2026-04-29 18:12 27.18711 33.80380 51 ft 5 kts 165°
2026-04-29 18:12 27.18667 33.80389 53 ft 7 kts 178°
2026-04-29 18:12 27.18628 33.80358 53 ft 7 kts 234°
2026-04-29 18:13 27.18614 33.80319 57 ft 3 kts 251°
2026-04-29 18:13 27.18613 33.80315 57 ft 0 kts 251°
2026-04-29 18:13 27.18609 33.80301 54 ft 4 kts 252°
2026-04-29 18:13 27.18606 33.80290 54 ft 2 kts 251°
2026-04-29 18:14 27.18568 33.80246 50 ft 13 kts 208°
2026-04-29 18:14 27.18524 33.80235 55 ft 12 kts 166°
2026-04-29 18:14 27.18459 33.80259 53 ft 6 kts 165°
2026-04-29 18:14 27.18446 33.80263 53 ft 1 kts 164°
2026-04-29 18:15 27.18421 33.80271 55 ft 5 kts 163°
2026-04-29 18:15 27.18385 33.80283 55 ft 7 kts 163°
2026-04-29 18:15 27.18331 33.80301 53 ft 9 kts 163°
2026-04-29 18:15 27.18275 33.80318 55 ft 8 kts 166°
2026-04-29 18:16 27.18228 33.80330 54 ft 6 kts 172°
2026-04-29 18:16 27.18195 33.80310 52 ft 5 kts 237°
2026-04-29 18:16 27.18192 33.80299 51 ft 1 kts 249°
2026-04-29 18:16 27.18185 33.80278 54 ft 5 kts 249°
2026-04-29 18:17 27.18170 33.80234 53 ft 7 kts 247°
2026-04-29 18:17 27.18142 33.80201 52 ft 1 kts 205°
2026-04-29 18:17 27.18134 33.80198 51 ft 3 kts 194°
2026-04-29 18:17 27.18088 33.80206 48 ft 10 kts 166°
2026-04-29 18:18 27.18016 33.80226 53 ft 9 kts 166°
2026-04-29 18:18 27.17983 33.80235 53 ft 0 kts 166°
2026-04-29 18:18 27.17979 33.80236 53 ft 3 kts 166°
2026-04-29 18:18 27.17974 33.80238 48 ft 0 kts 165°
2026-04-29 18:19 27.17971 33.80239 49 ft 0 kts 165°
2026-04-29 18:19 27.17968 33.80239 50 ft 0 kts 165°
2026-04-29 18:19 27.17965 33.80241 51 ft 1 kts 163°
2026-04-29 18:19 27.17944 33.80248 49 ft 5 kts 163°
2026-04-29 18:20 27.17898 33.80262 51 ft 8 kts 166°
2026-04-29 18:20 27.17837 33.80278 51 ft 9 kts 165°
2026-04-29 18:20 27.17777 33.80297 52 ft 9 kts 165°
2026-04-29 18:20 27.17718 33.80315 54 ft 9 kts 165°
2026-04-29 18:21 27.17658 33.80334 51 ft 10 kts 165°
2026-04-29 18:21 27.17586 33.80356 54 ft 12 kts 165°
2026-04-29 18:21 27.17491 33.80384 52 ft 16 kts 165°
2026-04-29 18:21 27.17374 33.80422 51 ft 18 kts 164°
2026-04-29 18:22 27.17253 33.80460 49 ft 18 kts 163°
2026-04-29 18:22 27.17137 33.80499 50 ft 17 kts 165°
2026-04-29 18:22 27.17024 33.80532 48 ft 16 kts 166°
2026-04-29 18:22 27.16916 33.80557 50 ft 16 kts 169°
2026-04-29 18:23 27.16804 33.80582 46 ft 17 kts 165°
2026-04-29 18:23 27.16690 33.80615 47 ft 17 kts 168°
2026-04-29 18:23 27.16580 33.80649 47 ft 16 kts 166°
2026-04-29 18:23 27.16474 33.80678 46 ft 15 kts 165°
2026-04-29 18:24 27.16388 33.80666 42 ft 13 kts 233°
2026-04-29 18:24 27.16369 33.80572 43 ft 13 kts 288°
2026-04-29 18:24 27.16417 33.80527 45 ft 0 kts 340°
2026-04-29 18:25 27.16419 33.80526 45 ft 5 kts 340°
2026-04-29 18:25 27.16605 33.80468 46 ft 57 kts 345°
2026-04-29 18:25 27.17232 33.80287 51 ft 126 kts 345°
2026-04-29 18:25 27.18195 33.80083 415 ft 150 kts 351°
2026-04-29 18:26 27.19373 33.79932 801 ft 184 kts 343°
2026-04-29 18:26 27.20512 33.79451 1953 ft 163 kts 337°
2026-04-29 18:26 27.21602 33.79009 2617 ft 180 kts 340°
2026-04-29 18:26 27.22882 33.78531 2837 ft 206 kts 341°
2026-04-29 18:27 27.24340 33.78012 3054 ft 234 kts 341°
2026-04-29 18:27 27.25950 33.77455 3602 ft 246 kts 341°
2026-04-29 18:27 27.27618 33.76886 4362 ft 253 kts 341°
2026-04-29 18:27 27.29315 33.76311 5208 ft 259 kts 342°
2026-04-29 18:28 27.30967 33.75514 6055 ft 260 kts 324°
2026-04-29 18:28 27.32217 33.74022 6738 ft 269 kts 302°
2026-04-29 18:28 27.32824 33.72025 7459 ft 273 kts 279°
2026-04-29 18:28 27.32642 33.69926 7656 ft 273 kts 256°